Location: Rayville (historical)
(39.9992°N, 99.6815°W)
Time: 02:17:14
(UTC+00:00)

Cosmos 1862 Rocket - Pass Details

Date: 18 February 2020
Orbit: 604 x 633 km, 82.5° (Epoch: 05 April)

Event Time Altitude Azimuth Distance (km) Brightness Sun altitude
Rises 01:34:02 0° 1° (N) 2,868 6.9 -15.5°
Reaches altitude 10° 01:36:25 10° 11° (N) 1,960 6.0 -15.9°
Maximum altitude 01:40:23 35° 77° (ENE) 993 4.1 -16.7°
Enters shadow 01:41:14 32° 102° (ESE) 1,055 4.2 -16.8°
